Current weather by "City, St" or "zip code"  
 
Advertise Here

Current Conditions: Fairfield Municipal Airport, IA

Fog/Mist


32.0 F

Last Updated on Nov 23 2020, 9:55 pm CST
Humidity: 100%
Wind Speed: SE 9.2 mph
Barometer 30.21 in
Dewpoint: 32.0 F
Visibility: 4.00 mi
Precip: --
Heat Index: NA
Wind Chill: 24 F
Current conditions at:

Fairfield Municipal Airport, IA (KFFL)

Lat: 41.0521 Lon: 91.98339

Local Radar Image active severe weather and emergency alerts image image weather storm and storm spotter reports image weather observation monitoring service image
Local
Radar
Active
Alerts
Storm Reports Obs
Monitoring

Sign-up For Email & Text Message Weather Alert Notification Services


Advertise Here

Observation History for Fairfield Municipal Airport, IA


Time Wind
(mph)
Vis
(mi)
Weather Precip (in) Temperature (F) Relative
Humidity
Wind
Chill
(F)
Heat
Index
(F)
Pressure
Air Dwpt altimeter
(in)
sea level
(mb)
Rmks
9:55 pm CST SE 9.2 4.00 Fog/Mist -- 32.0 32.0 100% 24 NA 30.21 M
8:55 pm CST SE 8.1 3.00 Fog/Mist -- 32.0 32.0 100% 25 NA 30.21 M
7:55 pm CST SE 8.1 2.50 Fog/Mist -- 32.0 32.0 100% 25 NA 30.23 M
6:55 pm CST SE 5.8 1.75 Fog/Mist -- 32.0 32.0 100% 26 NA 30.25 M
5:55 pm CST E 4.6 4.00 Fog/Mist -- 32.0 32.0 100% 27 NA 30.27 M
4:35 pm CST S 5.8 0.50 Fog/Mist -- 32.0 32.0 100% 26 NA 30.29 M
2:15 pm CST SW 5.8 10.00 A Few Clouds -- 37.0 28.4 70% 32 NA 30.30 M
1:55 pm CST SW 4.6 9.00 Fair -- 37.0 30.2 75% 33 NA 30.30 M
12:55 pm CST N 0.0 10.00 Fair -- 37.0 32.0 81% NA NA 30.31 M
11:55 am CST N 0.0 10.00 Fair -- 37.0 32.0 81% NA NA 30.33 M
10:55 am CST N 0.0 10.00 Fair -- 34.0 32.0 93% NA NA 30.36 M
9:55 am CST N 3.5 9.00 Fair -- 32.0 32.0 100% NA NA 30.36 M
8:55 am CST NW 5.8 10.00 Fair -- 30.0 30.2 100% 24 NA 30.36 M
7:55 am CST NW 6.9 8.00 Fair -- 27.0 26.6 100% 20 NA 30.35 M
6:55 am CST W 6.9 9.00 Fair -- 25.0 24.8 100% 17 NA 30.34 M
5:55 am CST W 6.9 9.00 Fair -- 25.0 24.8 100% 17 NA 30.33 M
4:35 am CST W 5.8 10.00 Fair -- 27.0 26.6 100% 20 NA 30.32 M
3:55 am CST W 6.9 10.00 Fair -- 27.0 26.6 100% 20 NA 30.32 M
2:55 am CST W 5.8 10.00 Fair -- 28.0 28.4 100% 22 NA 30.32 M
1:55 am CST W 6.9 10.00 Fair -- 30.0 30.2 100% 23 NA 30.31 M
12:55 am CST W 8.1 10.00 Fair -- 32.0 32.0 100% 25 NA 30.30 M
11:55 pm CST W 8.1 10.00 Fair -- 34.0 32.0 93% 27 NA 30.30 M
10:55 pm CST W 8.1 10.00 Fair -- 34.0 30.2 87% 27 NA 30.28 M

Regional Weather Observation


Oskaloosa, Oskaloosa Municipal Airport, IA (KOOA)

Light Snow
34.0 F

Fairfield Municipal Airport, IA (KFFL)

Fog/Mist
32.0 F

Washington, IA (KAWG)

Light Snow
32.0 F

Pella, Pella Municipal Airport, IA (KPEA)

Rain
33.0 F

Grinnell Municipal Airfield, IA (KGGI)

Light Snow
37.0 F

Iowa City Municipal Airport, IA (KIOW)

Overcast
36.0 F